Location: Newark
(28.5667°N, 77.2000°E)
Time: 03:20:25
(UTC+00:00)

Hubble Space Telescope - Visible Passes

Search period start: 17 July 2019 00:00
Search period end: 27 July 2019 00:00
Orbit: 536 x 540 km, 28.5° (Epoch: 15 July)

Date Brightness Start Highest point End Pass type
(mag) Time Alt. Az. Time Alt. Az. Time Alt. Az.
23 Jul 2.7 23:40:40 10° SSW 23:43:43 20° SSE 23:46:46 10° ESE visible
24 Jul 2.3 23:29:42 10° SSW 23:33:07 25° SSE 23:36:32 10° ESE visible
25 Jul 2.0 23:19:23 13° SW 23:22:32 31° SSE 23:26:12 10° E visible
26 Jul 1.6 23:09:24 18° SW 23:11:57 38° SSE 23:15:47 10° E visible
